When you browse on this site, cookies collect data to enhance your experience and personalize the content and advertising you see.
Visit our Privacy Policy to learn more. By continuing to use the site, you agree to this use of cookies and data.

Hourly Weather Salta

Today, 15 July, Wednesday

Time Temperature Precipitation Wind Pressure Humidity
00:00 +7°C° 0 mm 0 mps 651 mmHg 81%
01:00 +6°C° 0 mm 0 mps 651 mmHg 81%
02:00 +6°C° 0 mm 0 mps 651 mmHg 80%
03:00 +6°C° 0 mm 0 mps 650 mmHg 80%
04:00 +6°C° 0 mm 0 mps 650 mmHg 79%
05:00 +6°C° 0 mm 0 mps 650 mmHg 78%
06:00 +7°C° 0 mm 0 mps 650 mmHg 76%
07:00 +8°C° 0 mm 1 mps 651 mmHg 73%
08:00 +9°C° 0 mm 1 mps 651 mmHg 70%
09:00 +12°C° 0 mm 1 mps 652 mmHg 63%
10:00 +14°C° 0 mm 1 mps 652 mmHg 56%
11:00 +17°C° 0 mm 2 mps 653 mmHg 49%
12:00 +18°C° 0 mm 2 mps 652 mmHg 46%
13:00 +19°C° 0 mm 2 mps 652 mmHg 43%
14:00 +20°C° 0 mm 3 mps 651 mmHg 40%
15:00 +19°C° 0 mm 2 mps 651 mmHg 43%
16:00 +18°C° 0 mm 2 mps 650 mmHg 46%
17:00 +17°C° 0 mm 2 mps 650 mmHg 49%
18:00 +15°C° 0 mm 1 mps 650 mmHg 57%
19:00 +13°C° 0 mm 1 mps 650 mmHg 64%
20:00 +10°C° 0 mm 0 mps 650 mmHg 71%
21:00 +10°C° 0 mm 0 mps 650 mmHg 73%
22:00 +10°C° 0 mm 1 mps 650 mmHg 75%
23:00 +10°C° 0 mm 1 mps 650 mmHg 77%

Tomorrow, 16 July, Thursday

Time Temperature Precipitation Wind Pressure Humidity
00:00 +9°C° 0 mm 1 mps 650 mmHg 77%
01:00 +9°C° 0 mm 1 mps 650 mmHg 77%
02:00 +9°C° 0 mm 1 mps 650 mmHg 77%
03:00 +9°C° 0 mm 1 mps 650 mmHg 77%
04:00 +9°C° 0 mm 1 mps 649 mmHg 76%
05:00 +9°C° 0 mm 1 mps 649 mmHg 75%
06:00 +10°C° 0 mm 1 mps 650 mmHg 70%
07:00 +11°C° 0 mm 1 mps 651 mmHg 65%
08:00 +12°C° 0 mm 1 mps 651 mmHg 59%
09:00 +14°C° 0 mm 1 mps 652 mmHg 52%
10:00 +17°C° 0 mm 2 mps 653 mmHg 45%
11:00 +20°C° 0 mm 2 mps 653 mmHg 37%
12:00 +21°C° 0 mm 2 mps 653 mmHg 34%
13:00 +23°C° 0 mm 2 mps 653 mmHg 32%
14:00 +25°C° 0 mm 2 mps 653 mmHg 29%
15:00 +24°C° 0 mm 2 mps 652 mmHg 32%
16:00 +23°C° 0 mm 2 mps 652 mmHg 35%
17:00 +21°C° 0 mm 2 mps 652 mmHg 37%
18:00 +19°C° 0 mm 1 mps 651 mmHg 45%
19:00 +16°C° 0 mm 1 mps 651 mmHg 53%
20:00 +13°C° 0 mm 1 mps 651 mmHg 60%
21:00 +13°C° 0 mm 1 mps 651 mmHg 63%
22:00 +12°C° 0 mm 1 mps 651 mmHg 66%
23:00 +12°C° 0 mm 1 mps 651 mmHg 68%

Day after tomorrow, 17 July, Friday

Time Temperature Precipitation Wind Pressure Humidity
00:00 +12°C° 0 mm 1 mps 650 mmHg 69%
01:00 +11°C° 0 mm 1 mps 650 mmHg 70%
02:00 +11°C° 0 mm 1 mps 650 mmHg 70%
03:00 +11°C° 0 mm 1 mps 650 mmHg 69%
04:00 +11°C° 0 mm 1 mps 649 mmHg 68%
05:00 +10°C° 0 mm 1 mps 649 mmHg 67%
06:00 +11°C° 0 mm 1 mps 650 mmHg 64%
07:00 +12°C° 0 mm 1 mps 650 mmHg 61%
08:00 +13°C° 0 mm 1 mps 650 mmHg 57%
09:00 +15°C° 0 mm 1 mps 651 mmHg 51%
10:00 +19°C° 0 mm 1 mps 652 mmHg 44%
11:00 +22°C° 0 mm 1 mps 652 mmHg 38%
12:00 +24°C° 0 mm 2 mps 652 mmHg 35%
13:00 +25°C° 0 mm 2 mps 651 mmHg 32%
14:00 +26°C° 0 mm 2 mps 651 mmHg 29%
15:00 +25°C° 0 mm 2 mps 650 mmHg 33%
16:00 +24°C° 0 mm 2 mps 650 mmHg 37%
17:00 +23°C° 0 mm 2 mps 650 mmHg 41%
18:00 +21°C° 0 mm 1 mps 649 mmHg 48%
19:00 +19°C° 0 mm 1 mps 649 mmHg 55%
20:00 +15°C° 0 mm 1 mps 648 mmHg 62%
21:00 +15°C° 0 mm 1 mps 648 mmHg 62%
22:00 +15°C° 0 mm 1 mps 648 mmHg 61%
23:00 +14°C° 0 mm 1 mps 648 mmHg 61%

18 July, Saturday

Time Temperature Precipitation Wind Pressure Humidity
00:00 +14°C° 0 mm 2 mps 648 mmHg 57%
01:00 +14°C° 0 mm 2 mps 648 mmHg 52%
02:00 +14°C° 0 mm 2 mps 648 mmHg 48%
03:00 +14°C° 0 mm 2 mps 647 mmHg 47%
04:00 +14°C° 0 mm 2 mps 647 mmHg 46%
05:00 +14°C° 0 mm 2 mps 647 mmHg 45%
06:00 +14°C° 0 mm 2 mps 647 mmHg 40%
07:00 +15°C° 0 mm 2 mps 648 mmHg 35%
08:00 +16°C° 0 mm 2 mps 648 mmHg 30%
09:00 +20°C° 0 mm 2 mps 649 mmHg 24%
10:00 +24°C° 0 mm 1 mps 650 mmHg 18%
11:00 +28°C° 0 mm 1 mps 651 mmHg 13%
12:00 +29°C° 0 mm 1 mps 651 mmHg 13%
13:00 +30°C° 0 mm 1 mps 651 mmHg 13%
14:00 +31°C° 0 mm 2 mps 650 mmHg 13%
15:00 +30°C° 0 mm 1 mps 650 mmHg 17%
16:00 +28°C° 0 mm 1 mps 650 mmHg 20%
17:00 +27°C° 0 mm 1 mps 649 mmHg 24%
18:00 +24°C° 0 mm 1 mps 649 mmHg 31%
19:00 +22°C° 0 mm 1 mps 649 mmHg 37%
20:00 +19°C° 0 mm 1 mps 649 mmHg 44%
21:00 +19°C° 0 mm 1 mps 649 mmHg 44%
22:00 +18°C° 0 mm 1 mps 649 mmHg 45%
23:00 +18°C° 0 mm 1 mps 649 mmHg 45%

19 July, Sunday

Time Temperature Precipitation Wind Pressure Humidity
00:00 +18°C° 0 mm 1 mps 649 mmHg 43%
01:00 +17°C° 0 mm 2 mps 649 mmHg 41%
02:00 +17°C° 0 mm 2 mps 649 mmHg 39%
03:00 +16°C° 0 mm 2 mps 648 mmHg 37%
04:00 +16°C° 0 mm 2 mps 648 mmHg 36%
05:00 +16°C° 0 mm 2 mps 648 mmHg 34%
06:00 +17°C° 0 mm 2 mps 649 mmHg 32%
07:00 +18°C° 0 mm 1 mps 649 mmHg 30%
08:00 +19°C° 0 mm 1 mps 650 mmHg 28%
09:00 +22°C° 0 mm 1 mps 650 mmHg 25%
10:00 +25°C° 0 mm 1 mps 651 mmHg 23%
11:00 +28°C° 0 mm 1 mps 652 mmHg 20%
12:00 +29°C° 0 mm 1 mps 652 mmHg 20%
13:00 +30°C° 0 mm 2 mps 651 mmHg 21%
14:00 +31°C° 0 mm 2 mps 651 mmHg 21%
15:00 +29°C° 0 mm 2 mps 650 mmHg 26%
16:00 +28°C° 0 mm 2 mps 650 mmHg 31%
17:00 +26°C° 0 mm 2 mps 649 mmHg 37%
18:00 +24°C° 0 mm 1 mps 649 mmHg 45%
19:00 +22°C° 0 mm 1 mps 649 mmHg 53%
20:00 +20°C° 0 mm 1 mps 649 mmHg 62%
21:00 +19°C° 0 mm 1 mps 649 mmHg 63%
22:00 +19°C° 0 mm 1 mps 649 mmHg 64%
23:00 +19°C° 0 mm 1 mps 649 mmHg 65%

20 July, Monday

Time Temperature Precipitation Wind Pressure Humidity
00:00 +18°C° 0 mm 1 mps 648 mmHg 64%
01:00 +18°C° 0 mm 1 mps 648 mmHg 64%
02:00 +18°C° 0 mm 1 mps 648 mmHg 64%
03:00 +18°C° 0 mm 1 mps 648 mmHg 63%
04:00 +16°C° 0 mm 1 mps 648 mmHg 62%
05:00 +16°C° 0 mm 1 mps 648 mmHg 62%
06:00 +18°C° 0 mm 1 mps 648 mmHg 60%
07:00 +19°C° 0 mm 1 mps 649 mmHg 58%
08:00 +19°C° 0 mm 1 mps 649 mmHg 55%
09:00 +22°C° 0 mm 1 mps 650 mmHg 50%
10:00 +25°C° 0 mm 1 mps 650 mmHg 44%
11:00 +28°C° 0 mm 1 mps 651 mmHg 38%
12:00 +29°C° 0 mm 2 mps 651 mmHg 36%
13:00 +30°C° 0 mm 2 mps 650 mmHg 34%
14:00 +31°C° 0 mm 2 mps 650 mmHg 32%
15:00 +30°C° 0 mm 2 mps 649 mmHg 35%
16:00 +29°C° 0 mm 2 mps 649 mmHg 39%
17:00 +27°C° 0 mm 2 mps 649 mmHg 43%
18:00 +25°C° 0 mm 2 mps 648 mmHg 49%
19:00 +23°C° 0 mm 1 mps 648 mmHg 55%
20:00 +21°C° 0 mm 1 mps 648 mmHg 61%
21:00 +20°C° 0 mm 1 mps 648 mmHg 62%
22:00 +20°C° 0 mm 1 mps 648 mmHg 62%
23:00 +20°C° 0 mm 1 mps 648 mmHg 63%
Show more